Time,TemperatureF,DewpointF,PressureIn,WindDirection,WindDirectionDegrees,WindSpeedMPH,WindSpeedGustMPH,Humidity,HourlyPrecipIn,Conditions,Clouds,dailyrainin,SoftwareType,DateUTC
2013-06-03 00:14:00,51.8,49.0,30.06,East,90,3.0,7.0,90,0.00,,,0.00,weatherlink.com 1.10,2013-06-03 07:14:00,
2013-06-03 00:29:00,51.3,49.0,30.07,East,96,2.0,5.0,90,0.00,,,0.00,weatherlink.com 1.10,2013-06-03 07:29:00,
2013-06-03 00:44:00,50.8,48.0,30.07,East,96,0.0,0.0,90,0.00,,,0.00,weatherlink.com 1.10,2013-06-03 07:44:00,
2013-06-03 00:59:00,50.3,48.0,30.07,East,96,0.0,2.0,91,0.00,,,0.00,weatherlink.com 1.10,2013-06-03 07:59:00,
2013-06-03 01:14:00,50.1,48.0,30.07,East,96,0.0,0.0,92,0.00,,,0.00,weatherlink.com 1.10,2013-06-03 08:14:00,
2013-06-03 01:29:00,49.7,48.0,30.07,East,96,0.0,0.0,92,0.00,,,0.00,weatherlink.com 1.10,2013-06-03 08:29:00,
2013-06-03 01:45:00,49.3,47.0,30.08,East,96,0.0,0.0,92,0.00,,,0.00,weatherlink.com 1.10,2013-06-03 08:45:00,
2013-06-03 02:00:00,48.9,47.0,30.08,East,96,0.0,0.0,93,0.00,,,0.00,weatherlink.com 1.10,2013-06-03 09:00:00,
2013-06-03 02:15:00,49.0,47.0,30.08,East,96,0.0,0.0,93,0.00,,,0.00,weatherlink.com 1.10,2013-06-03 09:15:00,
2013-06-03 02:30:00,49.2,48.0,30.08,East,96,0.0,0.0,94,0.00,,,0.00,weatherlink.com 1.10,2013-06-03 09:30:00,
2013-06-03 02:45:00,49.4,48.0,30.08,East,96,0.0,0.0,94,0.00,,,0.00,weatherlink.com 1.10,2013-06-03 09:45:00,
2013-06-03 03:00:00,49.4,48.0,30.08,East,96,0.0,0.0,94,0.00,,,0.00,weatherlink.com 1.10,2013-06-03 10:00:00,
2013-06-03 03:15:00,49.0,47.0,30.08,East,96,0.0,0.0,94,0.00,,,0.00,weatherlink.com 1.10,2013-06-03 10:15:00,
2013-06-03 03:30:00,49.4,48.0,30.08,East,96,0.0,0.0,94,0.00,,,0.00,weatherlink.com 1.10,2013-06-03 10:30:00,
2013-06-03 03:45:00,49.1,48.0,30.08,East,80,2.0,4.0,94,0.00,,,0.00,weatherlink.com 1.10,2013-06-03 10:45:00,
2013-06-03 04:00:00,48.6,47.0,30.08,East,80,2.0,3.0,94,0.00,,,0.00,weatherlink.com 1.10,2013-06-03 11:00:00,
2013-06-03 04:15:00,48.6,47.0,30.08,East,80,0.0,0.0,95,0.00,,,0.00,weatherlink.com 1.10,2013-06-03 11:15:00,
2013-06-03 04:30:00,48.8,47.0,30.08,East,80,0.0,0.0,94,0.00,,,0.00,weatherlink.com 1.10,2013-06-03 11:30:00,
2013-06-03 04:45:00,49.2,48.0,30.08,East,80,0.0,0.0,95,0.00,,,0.00,weatherlink.com 1.10,2013-06-03 11:45:00,
2013-06-03 05:00:00,49.3,48.0,30.09,East,81,0.0,0.0,94,0.00,,,0.00,weatherlink.com 1.10,2013-06-03 12:00:00,
2013-06-03 05:15:00,49.3,48.0,30.09,East,80,0.0,0.0,94,0.00,,,0.00,weatherlink.com 1.10,2013-06-03 12:15:00,
2013-06-03 05:30:00,48.8,47.0,30.09,WSW,253,0.0,0.0,94,0.00,,,0.00,weatherlink.com 1.10,2013-06-03 12:30:00,
2013-06-03 05:45:00,48.9,47.0,30.09,WSW,253,0.0,0.0,94,0.00,,,0.00,weatherlink.com 1.10,2013-06-03 12:45:00,
2013-06-03 06:00:00,49.0,47.0,30.09,WSW,253,0.0,0.0,94,0.00,,,0.00,weatherlink.com 1.10,2013-06-03 13:00:00,
2013-06-03 06:15:00,49.2,48.0,30.10,WSW,253,0.0,0.0,95,0.00,,,0.00,weatherlink.com 1.10,2013-06-03 13:15:00,
2013-06-03 06:30:00,50.1,49.0,30.10,WSW,253,0.0,0.0,95,0.00,,,0.00,weatherlink.com 1.10,2013-06-03 13:30:00,
2013-06-03 06:45:00,51.2,50.0,30.10,WSW,253,0.0,1.0,95,0.00,,,0.00,weatherlink.com 1.10,2013-06-03 13:45:00,
2013-06-03 07:00:00,52.0,50.0,30.10,WSW,253,0.0,0.0,94,0.00,,,0.00,weatherlink.com 1.10,2013-06-03 14:00:00,
2013-06-03 07:15:00,53.2,51.0,30.10,WSW,253,0.0,0.0,93,0.00,,,0.00,weatherlink.com 1.10,2013-06-03 14:15:00,
2013-06-03 07:30:00,54.4,52.0,30.10,WSW,253,2.0,3.0,91,0.00,,,0.00,weatherlink.com 1.10,2013-06-03 14:30:00,
2013-06-03 07:45:00,55.2,52.0,30.11,WSW,256,2.0,4.0,89,0.00,,,0.00,weatherlink.com 1.10,2013-06-03 14:45:00,
2013-06-03 08:00:00,56.0,52.0,30.11,WSW,239,1.0,4.0,87,0.00,,,0.00,weatherlink.com 1.10,2013-06-03 15:00:00,
2013-06-03 08:15:00,56.7,52.0,30.11,WSW,245,1.0,5.0,84,0.00,,,0.00,weatherlink.com 1.10,2013-06-03 15:15:00,
2013-06-03 08:30:00,57.0,51.0,30.11,West,263,3.0,7.0,81,0.00,,,0.00,weatherlink.com 1.10,2013-06-03 15:30:00,
2013-06-03 08:46:00,58.0,53.0,30.12,ENE,73,2.0,6.0,84,0.00,,,0.00,weatherlink.com 1.10,2013-06-03 15:46:00,
2013-06-03 09:01:00,58.6,52.0,30.12,North,8,0.0,6.0,78,0.00,,,0.00,weatherlink.com 1.10,2013-06-03 16:01:00,
2013-06-03 09:16:00,59.0,53.0,30.12,East,87,3.0,7.0,79,0.00,,,0.00,weatherlink.com 1.10,2013-06-03 16:16:00,
2013-06-03 09:31:00,59.6,53.0,30.12,East,82,2.0,5.0,79,0.00,,,0.00,weatherlink.com 1.10,2013-06-03 16:31:00,
2013-06-03 09:46:00,60.1,53.0,30.12,ENE,77,1.0,4.0,78,0.00,,,0.00,weatherlink.com 1.10,2013-06-03 16:46:00,
2013-06-03 10:01:00,60.0,52.0,30.12,SE,142,0.0,8.0,76,0.00,,,0.00,weatherlink.com 1.10,2013-06-03 17:01:00,
2013-06-03 10:16:00,59.4,52.0,30.12,West,262,1.0,8.0,77,0.00,,,0.00,weatherlink.com 1.10,2013-06-03 17:16:00,
2013-06-03 10:31:00,59.8,53.0,30.12,WSW,253,0.0,5.0,78,0.00,,,0.00,weatherlink.com 1.10,2013-06-03 17:31:00,
2013-06-03 10:46:00,60.6,53.0,30.12,ENE,58,3.0,5.0,77,0.00,,,0.00,weatherlink.com 1.10,2013-06-03 17:46:00,
2013-06-03 11:01:00,61.1,53.0,30.12,ESE,118,1.0,6.0,74,0.00,,,0.00,weatherlink.com 1.10,2013-06-03 18:01:00,
2013-06-03 11:31:00,60.4,53.0,30.12,ESE,107,3.0,9.0,76,0.00,,,0.00,weatherlink.com 1.10,2013-06-03 18:31:00,
2013-06-03 11:46:00,61.1,54.0,30.12,East,95,2.0,8.0,76,0.00,,,0.00,weatherlink.com 1.10,2013-06-03 18:46:00,
2013-06-03 12:01:00,60.8,53.0,30.12,ENE,64,7.0,8.0,76,0.00,,,0.00,weatherlink.com 1.10,2013-06-03 19:01:00,
2013-06-03 12:16:00,61.0,54.0,30.12,ESE,102,3.0,8.0,77,0.00,,,0.00,weatherlink.com 1.10,2013-06-03 19:16:00,
2013-06-03 12:47:00,61.9,52.0,30.12,East,93,6.0,7.0,71,0.00,,,0.00,weatherlink.com 1.10,2013-06-03 19:47:00,
2013-06-03 13:01:00,62.6,52.0,30.12,NNE,28,3.0,5.0,69,0.00,,,0.00,weatherlink.com 1.10,2013-06-03 20:01:00,
2013-06-03 13:16:00,63.6,53.0,30.11,West,266,2.0,4.0,68,0.00,,,0.00,weatherlink.com 1.10,2013-06-03 20:16:00,
2013-06-03 13:31:00,63.2,52.0,30.11,East,101,2.0,6.0,67,0.00,,,0.00,weatherlink.com 1.10,2013-06-03 20:31:00,
2013-06-03 13:47:00,63.4,53.0,30.11,NE,45,6.0,8.0,69,0.00,,,0.00,weatherlink.com 1.10,2013-06-03 20:47:00,
2013-06-03 14:01:00,63.8,53.0,30.11,ENE,67,0.0,7.0,68,0.00,,,0.00,weatherlink.com 1.10,2013-06-03 21:01:00,
2013-06-03 14:16:00,64.5,53.0,30.10,West,264,4.0,5.0,67,0.00,,,0.00,weatherlink.com 1.10,2013-06-03 21:16:00,
2013-06-03 14:31:00,64.6,52.0,30.10,West,262,5.0,9.0,63,0.00,,,0.00,weatherlink.com 1.10,2013-06-03 21:31:00,
2013-06-03 14:46:00,64.6,52.0,30.10,WSW,245,4.0,10.0,65,0.00,,,0.00,weatherlink.com 1.10,2013-06-03 21:46:00,
2013-06-03 15:01:00,63.6,54.0,30.10,WSW,244,6.0,8.0,70,0.00,,,0.00,weatherlink.com 1.10,2013-06-03 22:01:00,
2013-06-03 15:16:00,64.3,54.0,30.10,SW,223,6.0,8.0,70,0.00,,,0.00,weatherlink.com 1.10,2013-06-03 22:16:00,
2013-06-03 15:31:00,64.4,52.0,30.10,SW,236,5.0,8.0,64,0.00,,,0.00,weatherlink.com 1.10,2013-06-03 22:31:00,
2013-06-03 15:47:00,66.2,52.0,30.10,WSW,253,3.0,7.0,60,0.00,,,0.00,weatherlink.com 1.10,2013-06-03 22:47:00,
2013-06-03 16:02:00,66.5,52.0,30.10,West,272,2.0,6.0,61,0.00,,,0.00,weatherlink.com 1.10,2013-06-03 23:02:00,
2013-06-03 16:17:00,67.9,51.0,30.09,NNW,337,0.0,4.0,56,0.00,,,0.00,weatherlink.com 1.10,2013-06-03 23:17:00,
2013-06-03 16:32:00,67.2,51.0,30.09,ENE,75,4.0,6.0,57,0.00,,,0.00,weatherlink.com 1.10,2013-06-03 23:32:00,
2013-06-03 16:47:00,66.0,52.0,30.09,SW,222,1.0,7.0,62,0.00,,,0.00,weatherlink.com 1.10,2013-06-03 23:47:00,
2013-06-03 17:02:00,65.7,52.0,30.08,West,272,3.0,11.0,62,0.00,,,0.00,weatherlink.com 1.10,2013-06-04 00:02:00,
2013-06-03 17:17:00,65.0,52.0,30.08,WSW,253,6.0,9.0,64,0.00,,,0.00,weatherlink.com 1.10,2013-06-04 00:17:00,
2013-06-03 17:32:00,65.2,53.0,30.09,West,266,3.0,8.0,64,0.00,,,0.00,weatherlink.com 1.10,2013-06-04 00:32:00,
2013-06-03 17:47:00,66.6,53.0,30.09,WNW,282,0.0,5.0,62,0.00,,,0.00,weatherlink.com 1.10,2013-06-04 00:47:00,
2013-06-03 18:02:00,67.0,53.0,30.09,West,270,0.0,6.0,62,0.00,,,0.00,weatherlink.com 1.10,2013-06-04 01:02:00,
2013-06-03 18:17:00,66.0,52.0,30.09,WSW,253,5.0,6.0,62,0.00,,,0.00,weatherlink.com 1.10,2013-06-04 01:17:00,
2013-06-03 18:32:00,64.8,53.0,30.09,West,260,6.0,7.0,66,0.00,,,0.00,weatherlink.com 1.10,2013-06-04 01:32:00,
2013-06-03 18:47:00,64.3,52.0,30.09,WSW,253,5.0,6.0,65,0.00,,,0.00,weatherlink.com 1.10,2013-06-04 01:47:00,
2013-06-03 19:02:00,64.5,53.0,30.09,WSW,253,4.0,4.0,66,0.00,,,0.00,weatherlink.com 1.10,2013-06-04 02:02:00,
2013-06-03 19:17:00,63.6,52.0,30.09,WSW,253,3.0,7.0,66,0.00,,,0.00,weatherlink.com 1.10,2013-06-04 02:17:00,
2013-06-03 19:32:00,64.0,51.0,30.09,WSW,253,2.0,4.0,64,0.00,,,0.00,weatherlink.com 1.10,2013-06-04 02:32:00,
2013-06-03 19:47:00,64.4,52.0,30.09,WSW,253,0.0,3.0,64,0.00,,,0.00,weatherlink.com 1.10,2013-06-04 02:47:00,
2013-06-03 20:02:00,64.7,53.0,30.09,WSW,253,0.0,0.0,66,0.00,,,0.00,weatherlink.com 1.10,2013-06-04 03:02:00,
2013-06-03 20:17:00,62.5,53.0,30.09,SSE,167,1.0,3.0,72,0.00,,,0.00,weatherlink.com 1.10,2013-06-04 03:17:00,
2013-06-03 20:32:00,60.5,53.0,30.09,SSE,167,1.0,2.0,76,0.00,,,0.00,weatherlink.com 1.10,2013-06-04 03:32:00,
2013-06-03 20:47:00,59.5,53.0,30.09,SSE,167,0.0,1.0,79,0.00,,,0.00,weatherlink.com 1.10,2013-06-04 03:47:00,
2013-06-03 21:02:00,58.7,53.0,30.10,SSE,167,0.0,0.0,80,0.00,,,0.00,weatherlink.com 1.10,2013-06-04 04:02:00,
2013-06-03 21:17:00,57.9,52.0,30.09,SSE,167,0.0,0.0,81,0.00,,,0.00,weatherlink.com 1.10,2013-06-04 04:17:00,
2013-06-03 21:32:00,56.7,52.0,30.10,SSE,167,2.0,2.0,84,0.00,,,0.00,weatherlink.com 1.10,2013-06-04 04:32:00,
2013-06-03 21:47:00,55.9,51.0,30.10,SE,135,1.0,2.0,84,0.00,,,0.00,weatherlink.com 1.10,2013-06-04 04:47:00,
2013-06-03 22:02:00,55.7,51.0,30.10,ESE,108,2.0,3.0,84,0.00,,,0.00,weatherlink.com 1.10,2013-06-04 05:02:00,
2013-06-03 22:17:00,54.7,51.0,30.10,East,93,1.0,3.0,86,0.00,,,0.00,weatherlink.com 1.10,2013-06-04 05:17:00,
2013-06-03 22:32:00,55.1,51.0,30.10,East,93,2.0,2.0,85,0.00,,,0.00,weatherlink.com 1.10,2013-06-04 05:32:00,
2013-06-03 22:47:00,55.2,51.0,30.11,East,94,2.0,2.0,84,0.00,,,0.00,weatherlink.com 1.10,2013-06-04 05:47:00,
2013-06-03 23:02:00,53.8,50.0,30.11,East,94,0.0,1.0,88,0.00,,,0.00,weatherlink.com 1.10,2013-06-04 06:02:00,
2013-06-03 23:17:00,53.5,50.0,30.11,East,94,0.0,2.0,89,0.00,,,0.00,weatherlink.com 1.10,2013-06-04 06:17:00,
2013-06-03 23:32:00,53.0,50.0,30.11,East,93,1.0,2.0,90,0.00,,,0.00,weatherlink.com 1.10,2013-06-04 06:32:00,
2013-06-03 23:47:00,52.7,50.0,30.11,East,93,0.0,0.0,90,0.00,,,0.00,weatherlink.com 1.10,2013-06-04 06:47:00,